Temperature
10 13 13 13 12 13 13 13 13 12 9 9 10 11 10 6 5 5 5 4 4 3 3 3 4 4 4 4 4 4 5 5 5 5 5 5 4 4 4 4 4 4 4 4
12 12 11 11 10 11 11 12 12 10 8 9 10 10 9 7 6 5 5 4 4 3 2 3 3 3 3 4 4 4 4 4 4 4 4 4 4 4 4 4 4 4 4 4
12 11 9 9 10 11 11 12 11 10 8 8 8 11 10 7 5 5 4 4 4 3 2 2 2 3 3 3 3 3 3 3 3 3 3 3 3 3 3 3 3 3 3 3
11 9 8 9 10 10 11 10 9 9 10 11 9 12 12 8 6 5 4 4 3 3 2 2 2 2 2 2 2 3 3 3 3 3 3 2 2 2 2 2 2 2 2 2
10 8 8 9 9 9 9 8 8 8 9 10 9 10 12 8 7 7 5 4 3 2 2 2 2 2 2 2 2 2 2 2 2 2 2 2 1 2 2 1 1 1 2 2
8 7 7 8 7 7 7 8 8 8 9 9 10 10 12 9 8 7 6 4 3 2 1 1 1 1 1 1 1 1 1 1 1 1 1 1 1 1 1 1 1 1 1 1
8 7 6 6 7 7 8 9 10 9 9 10 8 8 10 9 7 6 5 3 2 2 1 1 1 1 1 1 1 1 1 1 1 1 0 0 0 0 -0 -0 -0 -0 -0 -0
9 8 7 6 8 7 8 9 10 10 10 10 6 7 9 6 4 3 3 2 2 1 1 0 0 0 0 0 0 0 0 0 0 0 -0 -0 -0 -1 -1 -1 -1 -1 -1 -1
9 8 5 5 5 7 7 8 8 8 7 8 9 8 7 5 4 3 2 2 1 1 0 -0 -0 -0 -0 -0 -0 -0 -0 -0 -0 -1 -1 -1 -1 -1 -1 -2 -2 -2 -2 -2
8 7 5 4 5 5 6 7 7 7 8 9 9 8 9 6 5 4 3 2 1 0 -0 -0 -1 -1 -1 -1 -1 -1 -1 -1 -1 -1 -1 -1 -2 -2 -2 -2 -2 -2 -2 -2
7 7 5 5 5 6 5 5 7 7 7 8 9 9 7 6 5 4 3 2 1 -0 -1 -1 -1 -1 -1 -1 -1 -1 -1 -2 -2 -2 -2 -2 -2 -2 -2 -3 -3 -3 -3 -3
6 6 6 5 4 4 5 6 6 7 6 6 7 8 5 4 4 3 2 1 -0 -1 -1 -1 -1 -2 -1 -2 -2 -2 -2 -2 -2 -2 -3 -3 -3 -3 -3 -3 -3 -3 -3 -3
5 5 6 5 4 3 3 4 4 5 5 5 6 8 3 3 3 2 1 0 -1 -1 -1 -2 -2 -2 -2 -2 -2 -2 -2 -3 -3 -3 -3 -3 -3 -4 -4 -4 -4 -4 -4 -4
4 5 6 8 7 5 3 3 3 4 5 6 6 7 4 3 3 2 0 -0 -1 -1 -2 -2 -2 -2 -2 -3 -3 -3 -3 -3 -3 -3 -4 -4 -4 -4 -4 -4 -4 -4 -4 -4
4 4 4 4 4 4 4 4 3 3 5 6 6 6 6 4 3 2 0 -1 -2 -2 -2 -2 -3 -3 -3 -3 -3 -3 -3 -3 -4 -4 -4 -4 -5 -5 -5 -5 -5 -5 -5 -5
3 3 2 2 2 2 2 3 3 3 4 4 4 4 4 2 1 0 -1 -1 -2 -2 -3 -3 -3 -3 -3 -4 -4 -4 -4 -4 -4 -4 -5 -5 -5 -5 -5 -5 -5 -5 -5 -5
2 2 2 3 1 2 3 3 3 3 3 3 4 4 2 1 0 -0 -1 -2 -2 -3 -3 -4 -4 -4 -4 -4 -4 -4 -4 -4 -5 -5 -5 -5 -6 -6 -6 -6 -6 -6 -6 -6
1 2 2 2 1 2 5 2 2 2 2 2 2 1 1 0 -1 -2 -2 -2 -3 -3 -4 -4 -4 -4 -4 -4 -4 -5 -5 -5 -5 -5 -6 -6 -6 -6 -6 -6 -6 -6 -7 -7
1 1 1 2 2 3 3 1 0 1 1 0 0 0 -1 -3 -3 -2 -3 -3 -3 -4 -4 -4 -4 -4 -4 -4 -5 -5 -5 -5 -6 -6 -6 -6 -6 -7 -7 -7 -7 -7 -7 -7
-1 -0 1 1 2 3 3 0 -1 0 1 -0 -1 -1 -2 -3 -1 -1 -3 -4 -4 -4 -4 -4 -5 -5 -5 -5 -5 -5 -6 -6 -6 -6 -6 -7 -7 -7 -7 -7 -7 -7 -7 -7
-1 -1 0 1 1 3 1 -2 -1 1 2 -2 -2 -2 -3 -3 -2 -4 -4 -4 -4 -4 -5 -5 -5 -5 -6 -6 -6 -6 -6 -6 -7 -7 -7 -7 -7 -8 -8 -8 -8 -8 -8 -8
0 0 -0 0 0 2 -2 -2 -0 0 -2 -3 -3 -4 -4 -4 -5 -5 -5 -5 -5 -5 -5 -6 -6 -6 -6 -6 -7 -7 -7 -7 -7 -7 -8 -8 -8 -8 -8 -8 -8 -8 -8 -8
-0 1 1 1 1 -1 -3 -2 -3 -3 -3 -4 -4 -4 -4 -5 -6 -6 -6 -6 -6 -6 -6 -6 -6 -7 -7 -7 -7 -7 -7 -8 -8 -8 -8 -8 -8 -8 -9 -9 -9 -9 -9 -9
-2 -3 -2 -2 -2 -3 -4 -4 -4 -3 -4 -4 -4 -4 -5 -5 -6 -6 -6 -6 -7 -7 -7 -7 -7 -7 -7 -7 -8 -8 -8 -8 -8 -9 -9 -9 -9 -9 -9 -9 -9 -9 -10 -10
-2 -3 -3 -3 -3 -4 -4 -4 -4 -4 -4 -4 -5 -5 -5 -6 -6 -6 -7 -7 -7 -7 -7 -7 -8 -8 -8 -8 -8 -8 -9 -9 -9 -9 -9 -9 -10 -10 -10 -10 -10 -10 -10 -10
-4 -4 -3 -2 -3 -3 -4 -4 -5 -5 -5 -5 -5 -6 -6 -6 -6 -7 -7 -7 -8 -8 -8 -8 -8 -8 -8 -9 -9 -9 -9 -9 -10 -10 -10 -10 -10 -10 -10 -10 -10 -10 -10 -10
Wind_Speed
1 3 6 7 7 3 4 5 6 4 2 5 10 12 9 8 10 10 10 9 8 7 5 4 3 2 2 1 2 2 2 3 2 2 2 2 3 3 4 6 8 8 8 8
3 5 4 2 3 3 4 6 6 3 2 5 8 12 9 9 11 11 11 10 9 7 6 5 4 3 2 1 1 1 2 2 2 2 2 1 2 2 3 5 6 8 8 8
6 1 3 4 4 5 6 7 6 4 2 4 6 9 8 6 8 8 9 9 8 8 8 6 5 4 3 2 1 0 1 1 2 2 1 1 1 1 2 4 5 7 8 8
4 2 3 4 5 6 7 3 3 3 5 5 4 7 6 5 6 8 9 9 9 8 8 7 6 5 3 2 1 0 1 1 2 2 1 2 2 2 3 4 4 6 7 7
4 3 4 5 3 4 1 1 2 4 5 6 6 8 6 4 6 7 8 8 8 8 8 7 6 5 4 2 1 1 1 1 1 1 1 1 2 2 3 3 4 5 5 6
1 1 1 1 2 3 5 2 1 2 4 7 8 9 7 5 5 3 4 7 7 8 7 6 5 4 4 2 1 1 1 0 1 1 1 2 2 3 4 4 4 4 4 5
2 2 1 2 4 3 2 2 2 3 5 7 2 6 7 2 2 2 3 4 6 6 7 6 6 5 4 3 2 1 1 0 1 1 2 2 3 3 4 5 4 5 5 5
6 5 5 3 3 5 6 5 5 6 6 5 3 7 4 0 1 1 1 2 4 5 6 6 6 5 4 4 3 2 1 1 2 2 2 2 3 3 3 4 5 5 5 6
7 5 2 1 1 4 5 5 2 2 3 6 6 6 5 2 2 2 2 2 3 4 5 5 5 5 4 4 3 3 2 2 2 3 3 3 3 4 5 5 5 5 5 6
4 4 2 1 1 1 2 4 3 4 4 8 7 6 4 3 4 4 4 4 4 4 4 4 4 4 3 3 3 3 3 3 3 3 3 3 4 5 5 5 6 6 7 7
3 4 2 3 7 7 4 4 5 5 4 6 7 5 1 3 3 4 4 4 4 4 4 4 4 3 2 2 2 3 3 3 3 4 4 4 4 5 5 5 6 7 7 8
4 3 3 4 1 3 6 6 7 6 6 5 6 6 3 1 1 1 2 2 3 3 3 3 3 3 2 2 2 3 3 3 4 4 4 5 5 5 5 6 7 7 8 8
5 4 3 2 3 3 5 5 6 3 3 6 8 7 2 1 1 1 2 2 2 3 3 3 3 3 3 3 3 3 3 4 4 4 5 5 5 5 6 6 7 7 8 8
3 5 8 9 4 5 6 9 10 9 7 10 13 12 6 4 3 3 3 3 3 3 3 3 3 3 3 3 3 3 4 4 4 5 5 5 6 6 6 7 7 7 8 8
4 5 6 6 3 4 8 10 13 15 15 13 14 13 11 7 5 4 3 3 3 3 3 4 4 3 3 3 3 4 4 4 4 5 5 5 6 6 6 7 7 7 7 8
4 4 3 4 3 5 8 11 14 16 16 17 16 14 6 4 3 3 4 4 4 4 4 4 4 4 4 4 4 4 4 4 4 5 5 5 5 6 6 7 7 7 8 8
5 5 4 4 1 4 9 10 12 9 10 11 14 11 3 4 5 5 5 5 5 4 4 4 4 4 4 4 4 4 4 4 4 5 5 5 6 6 6 6 7 7 8 8
6 5 3 2 1 8 4 1 5 9 9 8 7 4 3 4 4 4 4 4 4 4 4 4 4 4 3 3 3 3 3 4 4 5 5 5 5 6 6 7 7 8 7 8
5 6 4 4 6 10 5 2 3 6 6 6 7 5 3 1 2 3 2 3 4 4 4 3 3 3 3 3 3 3 3 3 4 5 5 6 6 6 7 7 8 7 8 8
3 4 5 5 6 8 3 2 1 3 5 3 5 4 3 2 3 2 1 3 3 3 2 2 2 2 2 2 2 2 3 4 4 5 6 6 6 6 7 7 8 7 7 8
5 5 8 9 8 8 0 3 5 5 3 2 3 3 4 3 3 2 2 3 3 3 2 2 2 2 2 2 2 3 3 4 5 5 6 6 6 7 7 7 7 7 7 8
8 7 8 7 8 7 4 6 5 2 2 1 1 2 2 1 1 2 2 2 3 2 2 2 2 2 2 2 2 3 4 4 5 5 6 6 6 6 6 7 7 7 7 8
7 6 5 7 5 1 4 3 1 1 1 0 1 1 2 1 2 2 2 2 2 2 2 2 2 2 3 3 3 4 5 5 5 5 6 6 6 6 6 6 7 6 6 6
4 1 3 4 4 2 2 1 1 1 0 0 1 1 2 2 2 2 2 2 3 3 2 2 2 3 3 4 4 4 5 5 5 6 6 6 6 6 6 5 5 6 6 6
3 4 3 4 2 1 2 3 2 1 1 1 1 0 1 2 2 2 2 2 3 3 3 2 2 3 4 4 4 4 5 5 5 6 6 6 6 6 6 6 6 6 6 7
3 5 5 4 4 3 2 1 2 3 2 1 1 0 1 1 2 2 2 3 3 3 3 3 3 3 4 4 5 5 5 5 5 5 5 5 5 5 6 6 6 7 8 10
Wind_Direction
113 183 207 208 214 257 214 222 238 238 212 232 242 252 240 209 213 216 211 206 204 201 190 180 172 156 131 97 73 53 44 30 23 18 12 12 12 10 15 13 8 5 1 359
163 221 228 182 181 192 206 230 246 253 236 249 264 264 252 219 216 218 215 211 209 201 191 187 184 174 166 146 102 61 44 28 19 7 354 343 348 1 5 2 4 2 360 358
200 164 148 157 174 205 227 237 243 252 274 245 279 267 228 213 214 219 221 219 212 203 197 193 192 190 184 177 164 74 37 26 18 9 15 5 354 341 346 348 351 354 354 353
208 168 163 180 200 212 240 245 230 229 247 251 244 274 234 202 210 218 218 215 211 205 202 197 195 194 194 189 167 103 40 30 26 16 5 356 333 333 334 332 334 340 349 350
197 172 177 202 217 211 207 95 209 240 246 263 239 254 258 199 235 227 219 216 212 205 202 200 197 195 190 181 170 154 83 38 27 18 1 343 334 329 326 324 328 336 341 345
147 145 231 170 65 129 126 106 100 202 231 252 235 235 264 220 227 217 211 212 209 203 200 198 193 188 182 175 172 167 141 37 10 359 342 329 325 323 324 323 325 329 328 330
205 190 121 122 120 136 179 182 236 236 231 246 186 236 259 234 210 219 223 215 205 197 195 195 191 191 189 187 190 197 200 272 308 305 306 308 308 308 310 313 317 320 320 320
203 220 189 185 193 188 201 216 225 245 257 264 227 239 259 56 297 272 236 202 192 193 197 198 198 197 196 197 202 214 240 265 282 289 296 300 301 299 300 303 305 304 305 307
208 208 99 151 345 186 183 215 270 255 274 267 247 256 277 222 233 217 210 202 201 200 202 203 202 201 201 205 213 224 240 265 279 283 290 292 294 296 297 297 294 296 297 302
204 206 187 156 162 349 272 168 173 208 237 258 261 255 252 217 215 213 220 220 215 207 207 206 206 208 208 211 221 233 243 255 273 278 282 288 292 294 295 294 294 295 297 299
199 192 180 195 210 203 174 194 214 214 242 250 265 262 243 202 203 215 222 223 216 208 207 207 207 208 210 217 223 233 246 260 274 280 281 286 290 291 293 294 294 295 295 297
180 188 212 221 266 290 225 217 196 213 231 235 261 270 79 157 169 228 246 235 213 207 208 206 206 211 218 229 238 244 253 262 275 281 279 283 287 289 291 292 295 297 296 295
164 179 196 227 213 205 229 224 219 229 222 222 239 256 95 69 329 298 271 238 209 205 203 203 211 222 231 243 256 264 264 268 277 281 279 282 286 290 291 294 296 296 296 296
180 208 227 241 256 194 220 222 211 206 226 240 243 257 268 274 278 278 265 237 218 206 206 215 226 234 240 249 259 269 276 277 279 280 277 281 286 290 293 295 296 295 296 295
196 229 241 267 265 220 233 225 212 217 230 242 256 259 261 258 258 258 245 230 221 225 231 235 241 245 248 256 265 273 280 283 281 278 278 281 285 287 290 293 295 296 295 295
203 223 230 263 247 247 255 243 228 231 238 246 259 265 268 277 270 260 244 224 228 235 244 252 256 256 258 263 269 274 281 285 281 277 278 283 284 285 289 293 297 298 298 298
191 188 205 248 268 288 257 237 220 222 225 230 245 256 243 261 257 257 248 237 237 244 253 258 261 265 272 275 277 279 284 288 283 282 284 285 283 286 292 295 297 298 300 300
186 186 208 226 202 243 258 133 213 223 236 232 243 251 243 261 282 277 258 245 251 259 264 266 269 277 285 286 288 290 291 288 289 290 290 291 291 291 294 295 296 298 299 298
201 187 198 208 239 262 264 215 193 211 248 230 228 240 269 329 310 277 251 259 270 270 271 271 271 276 284 283 289 292 295 298 297 295 295 296 295 294 295 296 297 298 298 297
176 198 208 208 230 246 250 157 178 190 249 198 204 221 221 187 265 287 356 313 297 295 292 292 293 294 287 292 294 288 295 298 299 301 299 298 296 293 292 294 296 296 295 295
177 194 215 222 235 256 216 140 155 205 264 148 197 203 196 215 271 326 327 321 320 315 313 310 299 294 295 295 291 289 295 298 303 303 301 299 298 294 292 293 294 295 295 295
189 190 203 207 224 243 144 153 193 240 62 130 182 201 209 245 310 308 317 323 328 331 330 325 311 310 313 305 294 293 298 306 308 304 302 302 302 300 297 296 297 297 295 294
211 209 205 206 222 52 158 185 202 96 143 212 214 198 176 211 257 283 309 317 320 323 321 319 311 314 319 313 302 297 306 313 309 305 304 303 303 301 301 299 299 299 297 295
218 212 206 232 241 224 200 221 228 164 188 255 184 177 184 219 247 279 301 311 318 320 318 316 308 308 314 318 316 309 310 312 307 304 305 305 305 305 304 302 299 298 300 300
204 178 203 234 243 233 228 222 210 162 116 108 89 204 211 214 248 270 288 298 304 309 308 303 298 299 307 316 316 318 316 312 306 304 305 306 305 304 303 301 299 298 294 297
194 193 200 228 202 201 220 179 166 163 169 164 152 296 289 253 256 274 279 286 292 296 301 302 301 302 307 312 313 316 316 309 304 304 306 306 305 306 305 304 304 298 298 304
Height
1524 1524 1522 1522 1524 1524 1523 1523 1523 1527 1534 1534 1529 1527 1529 1534 1535 1536 1536 1537 1538 1538 1539 1540 1540 1541 1541 1541 1541 1541 1541 1541 1540 1540 1539 1538 1538 1537 1535 1534 1532 1531 1530 1528
1524 1523 1524 1526 1527 1527 1525 1524 1523 1529 1534 1533 1528 1525 1525 1529 1530 1531 1532 1533 1534 1536 1536 1537 1538 1538 1538 1539 1539 1539 1539 1539 1538 1538 1537 1536 1535 1534 1533 1532 1530 1529 1527 1526
1518 1523 1526 1526 1527 1526 1524 1523 1523 1527 1532 1533 1530 1517 1519 1523 1527 1528 1529 1530 1531 1532 1533 1533 1534 1535 1536 1536 1536 1536 1537 1536 1536 1535 1534 1533 1532 1531 1531 1530 1528 1526 1525 1523
1521 1525 1526 1525 1525 1524 1522 1526 1528 1529 1527 1521 1527 1512 1507 1516 1522 1524 1525 1526 1527 1528 1530 1531 1532 1532 1533 1534 1534 1534 1534 1534 1533 1532 1532 1531 1529 1528 1527 1526 1525 1524 1522 1521
1520 1525 1524 1523 1524 1524 1525 1529 1529 1528 1525 1523 1523 1519 1502 1515 1515 1516 1519 1521 1523 1525 1527 1528 1529 1530 1531 1531 1532 1532 1531 1531 1531 1530 1529 1528 1527 1526 1525 1523 1522 1520 1519 1518
1523 1526 1525 1524 1527 1528 1529 1529 1529 1528 1525 1521 1515 1515 1499 1506 1507 1511 1515 1518 1520 1522 1524 1525 1526 1527 1528 1528 1529 1529 1529 1528 1528 1527 1526 1525 1524 1523 1522 1520 1519 1517 1516 1514
1522 1524 1526 1527 1526 1529 1527 1523 1521 1520 1518 1509 1519 1516 1504 1505 1509 1511 1513 1515 1517 1519 1521 1522 1523 1524 1525 1525 1526 1526 1526 1525 1525 1524 1523 1522 1521 1520 1519 1517 1515 1513 1512 1511
1515 1517 1523 1525 1522 1523 1523 1519 1517 1516 1508 1505 1520 1513 1503 1510 1511 1512 1513 1514 1515 1517 1518 1519 1520 1521 1522 1522 1523 1523 1523 1522 1522 1521 1520 1519 1518 1517 1515 1514 1512 1510 1508 1507
1509 1513 1525 1525 1525 1523 1522 1520 1520 1519 1519 1515 1503 1505 1506 1509 1510 1511 1512 1513 1513 1515 1516 1517 1518 1518 1519 1520 1520 1520 1520 1519 1519 1518 1517 1516 1515 1513 1512 1510 1508 1507 1505 1503
1510 1515 1523 1526 1526 1526 1523 1521 1523 1519 1516 1506 1496 1500 1497 1502 1505 1508 1510 1510 1511 1513 1514 1514 1515 1516 1516 1517 1517 1517 1517 1516 1515 1514 1513 1512 1511 1509 1508 1506 1505 1503 1501 1499
1512 1514 1522 1524 1521 1518 1524 1524 1518 1514 1512 1506 1497 1492 1496 1499 1502 1505 1507 1508 1509 1510 1511 1512 1513 1513 1514 1514 1514 1514 1513 1512 1512 1511 1509 1508 1506 1505 1504 1502 1500 1498 1496 1494
1512 1512 1514 1517 1522 1522 1518 1515 1515 1513 1513 1513 1503 1496 1501 1502 1503 1505 1506 1507 1508 1508 1509 1510 1510 1510 1510 1511 1511 1510 1510 1509 1508 1507 1505 1504 1502 1501 1499 1498 1496 1494 1492 1490
1511 1511 1511 1512 1520 1523 1519 1517 1516 1515 1512 1510 1504 1495 1502 1503 1503 1505 1505 1506 1506 1506 1507 1507 1507 1507 1507 1507 1507 1506 1506 1505 1504 1502 1501 1500 1498 1496 1495 1493 1491 1489 1487 1485
1509 1507 1502 1495 1494 1505 1511 1512 1513 1513 1509 1502 1497 1490 1498 1500 1502 1503 1504 1504 1504 1504 1504 1504 1504 1504 1504 1504 1503 1502 1502 1501 1500 1498 1497 1495 1494 1492 1490 1489 1487 1484 1482 1480
1507 1505 1504 1502 1503 1504 1503 1503 1507 1507 1499 1497 1489 1490 1492 1496 1499 1501 1501 1502 1502 1502 1502 1501 1501 1501 1501 1500 1499 1499 1498 1497 1496 1494 1493 1491 1490 1488 1486 1484 1482 1480 1478 1475
1506 1505 1506 1506 1505 1505 1503 1499 1500 1500 1498 1495 1493 1492 1493 1496 1498 1499 1499 1499 1499 1499 1498 1498 1498 1498 1497 1497 1496 1495 1494 1493 1491 1490 1488 1487 1485 1483 1482 1480 1477 1475 1473 1471
1504 1505 1504 1499 1507 1505 1496 1491 1494 1495 1493 1493 1490 1488 1493 1495 1496 1496 1496 1496 1496 1496 1496 1495 1495 1494 1494 1493 1492 1491 1490 1489 1488 1486 1484 1483 1481 1479 1477 1475 1473 1471 1468 1466
1503 1503 1502 1501 1505 1500 1482 1490 1489 1490 1490 1491 1490 1491 1492 1493 1494 1494 1494 1494 1493 1493 1493 1492 1492 1491 1491 1490 1489 1488 1487 1485 1484 1482 1480 1479 1477 1475 1473 1471 1469 1466 1464 1461
1501 1501 1501 1500 1493 1483 1486 1489 1490 1490 1488 1489 1490 1490 1492 1492 1492 1491 1491 1491 1491 1491 1490 1490 1489 1488 1488 1487 1486 1485 1483 1482 1480 1478 1477 1475 1473 1471 1469 1467 1464 1462 1460 1457
1502 1501 1500 1499 1492 1482 1479 1488 1489 1490 1485 1487 1488 1488 1490 1491 1489 1488 1489 1488 1488 1488 1487 1487 1486 1485 1485 1484 1483 1481 1480 1479 1477 1475 1473 1471 1469 1467 1465 1462 1460 1458 1455 1453
1498 1499 1497 1493 1488 1477 1484 1487 1489 1487 1480 1485 1485 1486 1487 1488 1487 1488 1486 1486 1485 1485 1484 1484 1483 1482 1481 1481 1479 1478 1477 1475 1474 1472 1469 1467 1465 1463 1461 1458 1456 1454 1451 1449
1486 1488 1491 1490 1488 1481 1485 1486 1485 1482 1484 1484 1484 1485 1486 1485 1485 1485 1484 1484 1483 1482 1482 1481 1480 1479 1479 1478 1477 1475 1474 1472 1470 1468 1466 1464 1461 1459 1457 1455 1452 1450 1448 1445
1483 1481 1479 1480 1479 1481 1482 1482 1482 1482 1483 1483 1483 1483 1484 1483 1483 1483 1482 1482 1481 1480 1479 1478 1478 1477 1476 1475 1474 1472 1471 1469 1467 1465 1462 1460 1458 1456 1453 1451 1449 1446 1444 1441
1481 1483 1482 1481 1479 1481 1481 1481 1481 1482 1482 1482 1482 1482 1482 1481 1481 1481 1480 1479 1479 1478 1477 1476 1475 1474 1473 1472 1471 1469 1468 1466 1463 1461 1459 1457 1454 1452 1450 1448 1446 1443 1441 1438
1477 1480 1480 1478 1479 1480 1479 1480 1480 1480 1480 1481 1481 1480 1480 1479 1479 1478 1478 1477 1476 1476 1475 1474 1473 1472 1471 1469 1468 1466 1464 1462 1460 1458 1456 1454 1451 1449 1446 1444 1442 1440 1437 1435
1476 1477 1476 1473 1475 1477 1477 1478 1478 1478 1479 1479 1479 1478 1478 1478 1477 1476 1476 1475 1474 1473 1472 1471 1470 1469 1468 1466 1465 1463 1461 1459 1457 1455 1453 1451 1448 1446 1444 1441 1438 1436 1434 1431